Simultaneous Nadir Overpasses (SNOs) Predictions

Prediction of SNOs between METOP-B and TERRA Satellite Orbit:

Table of predicted SNOs for the next 14.0 days since TLE Epoch: 8/6/2022
Index Date (METOP-B) Time (METOP-B) Lat,Lon (METOP-B) SZA (METOP-B ) Date (TERRA) Time (TERRA) Lat,Lon (TERRA) SZA (TERRA ) Distance(km) Time Diff (sec)
1 08/06/2022 14:35:48 81.15, 1.31 66.57 08/06/2022 14:36:01 81.16, 1.36 66.59 1.19 13
2 08/06/2022 15:26:27 -81.18, 169.35 113.33 08/06/2022 15:25:27 -81.18, 169.27 113.37 1.42 60
3 08/09/2022 10:10:09 81.16, 67.77 67.38 08/09/2022 10:10:13 81.16, 67.81 67.39 1.00 4
4 08/09/2022 11:00:48 -81.18,-124.17 112.52 08/09/2022 10:59:39 -81.18,-124.25 112.56 1.30 69
5 08/12/2022 04:53:51 -81.14, -33.72 111.87 08/12/2022 04:55:00 -81.14, -33.82 111.85 1.67 69
6 08/12/2022 05:44:30 81.16, 134.22 68.22 08/12/2022 05:44:25 81.16, 134.21 68.22 0.44 5
7 08/15/2022 00:28:11 -81.14, 32.70 111.00 08/15/2022 00:29:11 -81.13, 32.55 110.99 2.73 60
8 08/15/2022 01:18:50 81.16,-159.36 69.09 08/15/2022 01:18:36 81.16,-159.46 69.07 1.60 14
9 08/17/2022 20:02:33 -81.12, 98.73 110.15 08/17/2022 20:03:23 -81.12, 98.86 110.11 2.23 50



Historial Predications of SNOs between METOP-B and TERRA
